Wind_Speed
5 2 4 9 13 15 18 23 28 34 40 46 51 55 58 59 61 62 62 63 62 62 62 62 63 64 64 65 66 66 67 67 67 66 65 64 63 61 60 60 60 60 58 56 55 54 55 55 55 54 53 52 51 50 50 50 50 50 51 52 54 55 56 57 58 59 60 61 62 63 62 62 62 63 63 63 62 62 61 61 61 61 61 61 62 62
4 2 3 9 13 15 17 22 27 33 38 44 50 54 57 59 61 61 62 62 62 62 62 63 64 64 65 65 66 66 67 67 67 67 66 65 63 61 60 60 60 60 60 59 59 59 58 58 57 56 54 53 51 50 50 50 50 50 52 53 54 55 56 56 57 58 60 61 62 62 62 62 62 62 63 62 62 62 62 62 62 62 62 62 62 62
4 2 3 8 13 16 17 21 26 32 37 42 48 53 56 58 59 60 61 61 62 62 63 64 64 65 65 65 66 67 67 67 67 67 66 65 63 62 61 61 61 61 61 62 62 62 61 60 59 58 56 54 52 50 50 49 50 51 52 53 54 54 54 55 55 57 59 61 62 62 62 61 61 62 62 61 61 61 61 61 62 62 62 62 62 62
5 1 2 6 12 16 18 20 25 30 36 41 46 51 55 57 58 59 60 60 61 62 63 64 64 65 65 65 66 67 67 68 68 67 67 65 64 62 62 62 62 62 63 63 63 63 62 61 60 59 57 55 53 51 50 50 51 52 52 53 53 52 52 52 53 55 57 59 61 61 60 60 60 60 60 60 60 60 61 61 61 61 62 62 62 62
6 2 2 5 9 14 18 21 24 29 34 40 45 50 53 56 57 58 59 60 60 61 62 63 64 65 65 66 66 67 68 68 68 68 67 66 64 63 63 63 63 62 63 63 63 62 62 61 60 59 58 57 55 54 53 53 53 53 53 52 51 51 50 50 51 53 56 59 60 60 59 58 58 59 59 59 59 59 59 60 60 60 61 61 61 61
6 3 1 4 7 12 17 20 24 28 33 38 44 49 52 55 57 58 58 59 60 61 62 63 64 65 65 66 66 67 68 69 69 68 67 67 66 65 64 64 63 62 62 62 62 62 61 60 60 59 58 58 57 57 57 56 55 54 53 52 50 49 48 48 50 52 56 59 60 60 59 58 58 58 58 58 58 58 58 59 59 59 59 59 59 60
6 3 1 4 7 10 14 18 23 27 32 37 42 47 51 54 56 57 58 58 59 60 62 62 63 64 65 66 67 67 68 68 69 68 68 67 67 67 66 64 63 61 61 61 61 61 61 60 60 59 59 58 58 58 58 57 56 55 53 52 50 48 46 46 47 51 55 58 60 60 60 59 59 59 59 59 58 58 58 58 58 58 58 58 58 58
5 3 2 4 7 9 12 16 20 25 31 35 41 46 50 53 55 57 58 58 59 60 61 61 62 63 64 66 66 67 67 68 69 69 68 68 68 67 66 64 63 62 61 61 62 62 62 61 61 60 59 59 59 58 58 57 56 55 54 52 50 48 46 45 47 50 55 57 59 60 61 61 61 60 60 60 60 60 60 59 59 58 58 58 58 58
4 3 2 4 6 9 11 14 18 22 28 33 39 44 49 52 55 56 57 58 59 60 61 61 61 62 64 65 66 67 67 68 68 68 68 68 67 66 65 64 62 62 61 62 62 62 62 62 61 60 60 59 59 58 57 56 56 56 55 54 52 49 47 47 49 53 57 58 59 60 61 61 62 62 61 61 61 60 60 60 59 59 58 58 58 58
4 2 3 4 6 9 11 13 16 20 25 30 36 42 48 52 54 56 56 57 58 60 61 61 61 62 63 65 66 67 67 67 67 67 67 67 66 65 64 63 62 62 62 62 62 62 62 62 61 60 60 59 58 58 57 57 57 57 56 55 54 52 51 51 53 56 59 60 61 61 61 62 62 61 61 60 59 59 59 59 58 58 58 58 59 59
3 2 3 5 7 9 11 14 16 19 23 27 33 39 46 51 53 55 56 56 58 59 60 61 61 61 63 64 65 66 67 66 66 66 65 65 64 63 63 63 63 63 63 63 63 63 62 61 61 60 59 58 58 58 58 58 59 59 58 57 56 55 54 55 56 58 60 61 61 62 62 61 61 60 59 58 57 56 56 56 57 57 58 58 59 59
3 2 4 6 8 10 12 15 17 19 22 25 30 36 43 49 53 54 55 56 57 58 59 60 60 61 62 63 64 65 66 66 65 64 64 63 63 62 62 63 63 64 64 64 64 63 63 62 60 59 59 58 58 58 59 60 60 60 60 59 58 58 58 58 58 60 61 61 62 62 62 61 60 59 58 57 56 55 55 55 56 57 58 59 59 60
4 3 4 7 9 11 13 16 18 20 22 25 28 34 41 47 51 53 54 55 56 57 58 59 59 60 61 62 63 64 65 65 64 63 62 62 62 62 63 64 64 64 64 64 64 63 63 62 60 59 59 59 59 60 60 61 62 62 61 60 60 59 60 60 61 61 62 62 62 62 62 62 61 60 60 59 58 57 57 57 57 57 58 59 60 60
6 5 5 7 10 13 15 17 19 21 23 25 28 33 39 45 50 52 53 54 55 57 57 58 58 59 60 61 63 64 64 64 64 63 62 62 63 63 64 64 65 64 64 64 64 63 63 62 61 60 60 60 60 61 62 62 63 62 61 61 60 60 61 62 62 63 63 63 62 62 62 62 62 62 62 62 61 60 60 59 59 59 60 60 60 60
7 7 7 8 10 13 16 19 21 22 24 25 28 32 37 43 47 51 53 54 55 56 56 57 58 59 60 62 63 64 64 64 64 63 63 63 64 64 64 65 65 65 65 65 64 64 63 62 62 62 62 62 63 63 63 63 63 62 61 60 60 60 61 62 64 64 65 64 63 63 63 63 64 64 64 64 64 64 63 63 62 61 61 60 60 59
8 8 9 9 11 13 17 20 22 23 25 26 29 32 36 41 45 49 52 53 54 55 56 57 58 59 61 63 64 65 65 65 65 64 64 64 64 64 65 65 65 66 66 66 65 64 64 63 63 63 64 64 64 64 64 63 62 62 60 60 59 60 61 63 65 66 66 65 64 64 64 64 65 66 66 67 67 66 66 65 64 63 62 61 60 60
9 9 10 11 12 13 16 20 22 24 25 27 30 32 35 40 44 48 51 53 54 55 56 57 58 60 62 64 66 67 67 66 66 65 65 64 64 64 65 65 66 66 66 66 66 65 64 64 65 65 65 65 65 64 64 63 62 61 60 59 59 60 61 64 66 67 67 66 65 65 65 65 66 67 68 68 68 68 67 66 65 64 63 62 61 61
11 9 11 13 13 14 16 19 22 24 26 28 30 33 36 39 43 47 50 53 54 55 56 57 59 61 64 66 68 68 68 67 67 66 65 65 64 64 65 66 66 67 67 67 66 66 66 66 66 66 66 66 65 64 64 63 62 61 61 60 59 60 62 65 67 68 67 66 66 65 66 67 67 68 68 69 69 69 68 67 66 66 65 64 63 63
12 10 11 13 15 16 17 19 22 24 26 28 30 33 35 39 42 46 50 53 54 56 57 58 60 63 65 68 69 69 69 68 67 66 66 65 65 65 66 66 67 67 67 67 67 67 67 67 68 68 67 67 66 65 64 64 63 62 62 61 61 62 64 66 68 68 67 66 66 66 67 67 68 68 69 69 69 69 69 68 67 67 66 66 66 65
13 12 11 13 16 18 19 20 22 24 25 27 30 32 35 39 42 46 49 53 55 57 58 60 62 64 66 69 70 70 70 70 69 68 67 66 66 66 67 68 68 69 69 69 69 69 69 69 69 69 69 68 67 66 65 65 64 63 63 63 63 65 66 68 68 68 67 67 67 67 67 68 68 69 69 69 70 70 69 69 68 68 68 68 67 67
14 13 12 13 16 19 20 21 22 24 25 27 29 32 35 38 42 45 49 52 55 58 59 61 63 65 67 69 71 72 72 71 70 69 68 67 67 68 68 69 70 71 71 71 70 70 70 71 71 72 71 71 70 69 68 67 66 65 65 65 66 67 68 69 69 69 68 68 67 67 68 68 69 69 70 70 70 70 70 69 69 69 69 69 68 68
16 15 14 14 16 19 22 23 24 25 26 27 28 31 34 37 41 45 48 52 55 58 60 62 64 66 68 70 72 73 73 73 72 71 70 69 69 69 70 71 71 72 72 72 72 72 73 73 74 74 74 73 72 71 70 69 68 68 67 68 68 69 70 70 70 69 69 69 68 68 69 69 69 70 70 71 71 71 70 70 70 69 69 69 69 69
18 17 16 15 16 18 22 25 26 27 27 28 29 31 33 36 40 43 47 50 54 57 60 63 65 66 68 70 72 74 75 74 73 72 71 70 70 71 71 72 72 72 73 73 73 74 75 76 77 77 76 75 74 73 72 71 70 70 70 70 70 70 71 71 70 70 70 70 69 69 69 70 70 71 72 72 72 72 71 71 70 70 70 70 70 70
20 19 18 17 17 18 20 24 27 29 30 29 30 31 33 35 39 42 46 49 53 56 59 62 64 66 68 70 72 75 76 76 75 74 73 73 73 73 73 73 73 73 73 74 74 75 76 77 78 78 77 76 75 74 73 72 72 72 72 72 72 72 72 71 71 71 71 71 71 71 71 71 72 72 73 73 73 73 72 72 71 71 71 71 71 72
23 22 21 20 19 19 20 23 27 30 32 32 32 32 33 35 37 41 44 48 51 54 57 61 64 66 68 70 73 76 77 77 76 75 75 75 75 75 74 74 74 74 74 74 75 75 76 77 78 77 77 76 75 74 73 73 73 73 73 73 73 73 73 72 72 72 72 72 72 72 72 73 73 74 75 75 75 74 74 73 73 72 72 73 74 74
25 24 24 23 22 21 21 23 26 30 33 35 35 34 34 35 37 40 43 47 50 53 56 60 63 66 69 71 74 76 78 78 78 77 76 76 76 76 76 75 75 75 75 75 75 76 76 77 77 77 76 76 75 75 74 74 74 74 74 74 73 73 73 73 73 73 73 73 73 73 74 74 75 75 76 76 76 76 76 75 75 75 75 75 76 76
27 27 26 25 25 24 23 24 25 28 32 35 37 37 37 36 37 39 42 46 49 52 55 59 62 66 69 72 75 77 79 80 79 78 77 77 77 77 77 77 76 76 76 76 76 76 77 77 77 77 77 77 76 76 75 75 75 75 74 74 74 74 74 73 73 73 73 73 74 74 74 75 76 76 77 77 77 77 77 77 77 77 77 77 77 77
29 29 29 28 28 27 27 26 26 28 31 34 38 40 40 40 39 40 42 45 49 52 54 58 61 65 69 73 76 78 80 81 80 79 78 78 78 78 78 78 77 77 77 77 77 77 77 77 78 78 77 77 77 76 76 76 76 75 75 75 75 75 74 74 74 74 74 74 75 75 75 76 76 76 77 77 77 78 78 78 78 78 78 78 77 77
32 31 31 30 30 30 30 29 29 29 30 33 37 40 42 43 42 42 43 45 48 51 54 57 60 64 69 73 77 79 81 82 82 81 80 79 79 79 79 79 78 78 78 78 78 78 78 78 78 78 78 78 78 77 77 76 76 76 76 76 76 76 76 76 76 76 76 76 76 76 76 76 76 76 77 77 77 78 78 77 77 77 77 77 76 76
35 34 33 33 32 32 32 32 32 31 32 33 36 39 42 45 46 46 45 46 48 51 54 57 60 63 67 72 76 80 82 84 84 83 82 80 80 81 80 79 79 79 79 79 78 78 79 79 79 79 78 78 78 78 78 77 77 77 77 77 77 77 77 77 77 77 77 77 77 77 77 77 77 77 77 77 77 77 77 77 77 76 76 76 75 75
39 37 36 35 35 35 35 35 35 34 34 34 36 38 41 44 47 48 48 48 49 51 54 57 60 62 66 70 75 80 84 85 85 85 83 83 82 83 82 81 80 80 80 79 79 80 80 80 80 79 79 79 79 78 78 78 78 78 78 78 78 78 78 78 79 79 79 79 79 79 79 78 78 78 78 78 78 78 77 77 76 76 76 75 75 74
42 41 39 38 37 37 37 37 37 37 37 37 37 38 40 43 46 49 50 51 51 52 54 57 60 62 65 69 73 79 84 86 87 86 86 85 85 84 84 83 82 82 81 81 81 81 81 81 81 80 80 79 79 79 79 79 79 79 79 79 79 79 79 80 80 80 80 81 81 81 81 80 80 80 80 80 79 79 78 78 77 77 76 76 75 75
45 44 43 41 40 40 39 39 39 40 40 40 40 40 41 42 45 48 51 53 54 54 55 57 60 62 65 68 72 77 81 85 87 88 88 87 87 86 85 85 84 84 83 83 83 83 83 83 82 81 81 80 80 80 80 80 80 80 80 80 80 80 80 80 81 81 81 82 82 82 82 82 82 82 82 82 82 81 80 79 79 78 77 77 77 76
47 46 45 44 43 42 42 42 42 42 42 42 43 42 43 43 45 47 50 53 55 57 57 58 60 62 65 68 71 75 79 83 86 88 89 89 89 88 87 86 86 86 85 84 84 84 84 85 84 83 82 82 82 81 81 81 81 81 81 81 81 81 81 81 81 81 82 82 83 83 83 83 84 84 84 83 83 82 82 81 80 79 79 78 77 77
48 48 47 47 46 45 45 44 44 44 44 45 45 45 45 45 46 47 49 52 55 58 59 60 62 63 65 68 70 73 77 80 84 87 89 90 90 90 89 88 88 87 87 86 86 86 86 86 86 86 85 84 84 83 83 83 82 82 82 82 82 82 82 82 82 82 82 83 83 84 84 84 84 84 84 84 83 83 82 81 80 80 79 79 78 77
49 49 48 48 48 47 47 46 46 46 47 47 47 47 47 48 48 48 49 51 54 57 60 62 63 64 66 68 70 73 76 79 82 85 88 90 91 91 91 90 89 89 88 88 88 87 87 88 88 88 88 88 87 86 85 85 84 83 83 83 83 84 84 84 83 83 83 83 84 84 84 84 84 84 84 83 83 82 82 81 81 80 79 79 79 78
48 49 49 49 49 48 48 48 48 48 48 49 49 49 50 50 50 50 51 51 53 56 59 62 64 66 67 69 70 72 75 77 80 83 86 89 91 92 92 92 91 91 89 89 89 88 88 89 89 89 90 90 90 90 89 88 86 85 85 85 85 85 85 85 85 85 85 85 85 85 85 85 85 84 84 84 83 83 82 82 81 80 80 80 79 79
48 48 48 48 49 49 49 49 49 50 50 50 51 51 51 52 52 53 53 53 54 55 57 60 63 66 68 70 71 73 74 76 79 81 84 87 89 91 92 93 93 92 91 91 90 89 89 89 89 89 90 91 92 92 91 91 89 88 88 87 87 86 86 86 86 86 86 86 86 87 86 86 86 86 85 85 84 84 83 83 82 82 81 81 81 81
46 46 47 47 48 49 49 49 50 50 51 51 52 52 53 53 54 54 55 55 55 56 57 59 61 64 67 70 72 73 75 76 78 80 83 85 88 90 92 93 93 94 93 93 92 91 90 89 89 89 90 90 91 92 92 92 92 91 91 90 89 88 87 87 87 87 87 87 87 87 87 87 87 87 87 86 86 85 85 84 84 83 83 83 82 82
45 45 45 46 47 47 48 49 50 50 51 52 52 53 54 54 55 56 56 57 57 57 58 58 60 62 65 68 71 73 75 77 78 80 82 84 87 89 90 92 93 94 94 94 94 93 92 91 91 90 90 90 90 91 91 92 92 92 92 91 91 90 89 88 88 87 87 87 87 87 88 88 88 88 88 87 87 86 86 85 85 84 84 83 82 82
44 44 44 45 46 46 47 48 49 49 50 51 52 53 54 55 56 57 57 58 59 59 59 60 60 61 63 66 69 72 74 76 78 80 81 83 85 88 89 91 92 94 94 95 95 95 95 94 93 92 91 91 90 90 90 91 91 91 92 92 92 92 91 90 89 88 88 87 87 87 87 87 87 87 87 87 87 86 86 85 84 83 83 82 81 80
44 44 44 44 45 46 46 47 48 49 49 50 51 53 54 55 56 57 58 59 60 60 61 61 61 62 63 64 66 69 71 74 77 79 80 82 84 86 88 90 91 93 94 95 95 96 96 96 96 95 94 93 92 91 91 91 91 91 91 91 92 92 92 91 91 90 89 88 88 88 87 87 87 87 87 86 86 85 85 84 83 82 81 80 80 79
45 45 45 45 45 46 46 47 48 48 49 50 51 52 53 54 56 57 58 59 60 61 61 62 63 63 63 64 65 66 68 71 74 76 79 80 82 84 86 88 89 91 92 93 95 96 96 97 97 97 97 96 95 94 93 92 92 92 92 92 92 92 91 91 91 91 90 89 89 88 88 88 87 87 87 86 85 85 84 83 82 81 81 80 79 78
47 46 46 47 47 47 47 48 48 49 49 50 51 52 53 54 55 56 57 59 60 61 62 63 63 64 65 65 65 65 66 68 70 73 75 77 80 82 83 85 86 88 90 91 93 94 95 96 97 97 98 98 97 97 96 96 95 94 94 94 94 93 93 93 92 92 91 91 90 90 89 89 88 88 87 86 86 85 84 83 83 82 81 80 80 79
49 49 48 48 49 49 49 49 50 50 51 51 52 52 53 53 54 55 57 58 59 61 62 63 64 64 65 66 66 66 66 67 68 69 71 74 76 78 80 82 84 85 87 88 90 91 92 94 95 96 96 97 98 98 98 98 98 98 97 97 96 96 96 95 94 94 93 92 92 91 91 90 89 89 88 87 87 86 85 84 84 83 82 82 81 80
51 51 51 50 51 51 51 51 51 52 52 53 53 54 54 54 55 56 56 58 59 60 61 62 63 64 65 66 66 67 67 67 67 68 69 70 72 74 76 78 80 82 83 85 86 87 89 90 91 92 93 94 95 97 98 98 99 99 99 99 99 99 98 98 97 96 95 95 94 94 93 92 91 90 89 89 88 88 87 86 85 84 84 83 82 82
53 53 53 52 52 52 53 53 53 53 54 54 55 55 55 56 56 57 57 58 58 59 60 61 62 64 65 65 66 66 67 68 68 68 68 68 69 70 72 74 76 78 79 81 83 84 85 87 88 89 90 91 92 94 94 95 96 97 98 99 99 100 100 99 99 98 98 97 96 95 95 94 92 92 91 90 90 89 88 87 87 86 85 84 84 83
55 55 54 54 54 54 54 54 54 55 55 56 56 57 57 57 58 58 58 59 59 59 60 60 61 62 63 64 64 65 66 67 68 68 68 69 68 68 69 70 71 73 75 76 78 80 82 83 85 86 87 89 90 91 91 91 92 93 94 95 96 97 98 98 98 98 97 97 96 95 95 94 93 92 92 91 90 90 89 88 88 87 86 85 85 84
57 56 56 56 56 56 56 56 56 56 57 57 57 58 58 59 59 59 60 60 60 60 60 60 61 61 62 62 63 63 64 65 66 67 68 68 69 68 68 69 69 69 70 72 73 75 77 79 81 83 84 86 88 89 89 89 89 90 90 91 92 93 93 94 94 94 94 93 93 93 92 92 91 91 90 90 89 89 88 88 87 86 86 85 84 83
58 58 58 57 57 57 57 57 57 58 58 58 59 59 59 60 60 60 60 60 60 60 60 60 60 60 61 61 61 61 62 63 64 65 66 67 68 69 69 69 69 69 69 69 69 70 72 74 76 78 80 82 84 86 87 87 88 88 88 88 89 89 89 89 89 89 89 89 88 88 88 88 87 87 87 87 86 86 86 85 84 84 83 82 82 81
60 59 59 59 59 59 59 59 59 59 60 60 60 60 60 60 60 61 61 61 61 60 60 60 60 60 60 60 60 60 60 61 62 63 64 65 66 67 68 69 69 70 69 69 68 68 68 69 71 73 74 76 78 80 82 84 85 85 86 86 86 86 86 86 86 85 85 84 84 84 83 83 83 83 83 83 83 83 82 82 81 81 80 79 78 78
Wind_Direction
23 52 155 162 164 165 167 169 172 175 176 176 177 178 179 181 183 184 185 185 185 186 188 189 190 190 191 191 191 190 190 189 190 191 192 193 195 197 198 199 201 204 207 208 211 215 218 222 224 226 227 228 229 231 232 234 237 240 243 245 248 250 252 255 257 259 260 261 261 262 262 263 263 264 265 265 266 266 267 268 269 269 270 271 272 272
23 54 154 166 168 169 171 172 175 178 179 180 180 180 181 182 184 185 185 185 186 187 188 189 190 190 191 191 191 191 190 190 190 190 191 193 194 196 198 199 202 204 207 208 211 214 217 219 221 223 225 226 228 230 233 236 239 242 245 247 249 251 253 255 257 258 260 261 262 262 263 263 264 265 266 267 268 268 269 269 269 270 270 271 271 272
17 67 147 171 174 174 174 175 178 180 182 183 183 183 183 184 185 186 186 186 187 188 188 189 190 191 191 191 191 191 190 190 190 190 191 192 194 195 197 199 202 204 207 209 211 214 216 218 220 222 223 225 227 230 233 237 240 243 246 248 250 252 254 255 257 259 260 261 262 262 263 264 265 265 267 268 268 269 269 269 270 270 270 270 271 271
4 59 144 172 179 180 179 178 180 182 184 185 185 185 185 186 186 187 187 188 188 189 189 190 191 191 191 191 191 191 190 190 190 191 191 192 194 196 197 200 202 204 207 210 212 215 217 219 221 222 223 225 228 230 233 236 239 242 245 248 250 252 253 255 257 259 260 261 261 262 262 263 264 266 267 267 268 269 269 269 269 270 270 270 271 271
354 10 156 170 180 185 185 183 182 184 186 187 187 187 187 187 188 188 188 189 190 190 190 191 191 191 192 192 191 191 190 190 190 191 192 193 194 196 198 200 202 205 207 210 213 216 218 220 222 223 224 226 228 231 233 235 237 240 243 245 247 250 252 254 256 258 260 261 261 261 262 263 264 265 266 267 268 268 269 269 270 270 270 271 272 272
347 346 186 176 181 186 189 187 186 186 187 188 188 188 188 189 189 189 190 190 191 191 191 192 192 192 192 192 192 191 191 191 190 191 192 193 195 197 199 201 203 205 208 211 214 216 218 220 222 224 225 226 228 230 232 234 236 238 240 242 245 247 251 254 257 260 262 262 262 262 262 262 263 264 265 266 267 268 269 270 270 271 272 272 273 273
342 337 243 192 185 187 189 190 189 189 189 190 190 189 189 190 191 191 191 192 192 192 192 193 193 193 193 193 193 192 192 191 191 191 192 194 196 198 200 201 203 206 208 211 214 216 218 220 221 222 224 225 227 229 231 233 235 236 238 239 242 245 249 253 257 260 262 264 264 265 264 264 264 264 265 266 267 268 269 270 271 272 273 273 274 274
337 324 264 203 192 189 189 190 191 191 191 191 191 191 190 191 192 193 193 193 192 192 192 193 194 194 194 194 194 193 192 192 192 192 193 195 198 200 201 202 204 206 209 212 214 216 218 219 220 222 223 224 226 228 230 232 233 235 236 237 239 242 245 249 253 256 259 261 264 266 267 267 267 266 266 267 267 268 269 271 272 272 273 273 273 273
333 309 256 211 198 193 189 188 189 191 192 193 193 192 192 192 193 194 194 194 193 193 193 194 194 195 195 195 194 194 193 193 193 194 195 196 199 201 203 204 206 208 211 213 215 216 218 219 221 222 223 224 226 227 229 231 233 234 235 236 237 239 241 244 248 251 254 257 260 263 266 267 268 268 268 268 269 269 270 270 271 271 271 272 272 272
329 291 236 212 201 195 190 187 187 189 191 193 194 194 194 193 194 195 195 195 195 194 194 195 195 195 195 195 195 194 194 194 194 195 195 197 199 201 203 206 208 210 213 214 216 217 219 220 221 223 224 226 227 228 230 232 233 235 236 236 236 237 238 241 245 249 252 254 256 259 261 264 266 267 268 269 269 269 269 269 269 269 269 270 270 271
317 280 224 209 201 195 191 187 185 186 188 191 194 195 195 195 195 195 196 196 196 196 196 196 196 196 196 195 195 195 194 194 194 195 196 197 199 201 204 206 208 211 213 215 216 218 219 220 222 224 225 227 228 230 231 233 234 235 236 236 236 235 236 239 243 247 250 252 254 256 258 259 261 263 265 266 267 267 266 266 265 266 266 267 268 269
279 256 219 206 200 195 191 188 185 185 187 189 192 194 195 196 196 196 197 197 197 197 197 198 198 197 197 196 195 195 194 194 194 195 196 197 199 201 203 206 208 210 213 215 216 217 219 220 222 223 225 227 229 230 231 233 234 235 235 235 234 234 235 238 241 245 248 250 252 254 255 256 258 259 261 262 263 263 262 262 262 262 263 264 265 267
256 236 214 204 200 196 192 189 187 186 187 188 190 192 194 196 196 197 197 198 198 198 198 199 199 198 198 197 196 195 194 194 194 195 196 197 199 201 203 206 208 210 212 214 215 217 218 219 221 223 224 226 228 229 230 231 232 233 233 233 233 233 235 237 240 242 245 248 250 252 253 254 255 256 257 258 259 259 259 259 259 260 261 262 264 266
254 232 212 201 199 197 194 190 188 188 188 190 191 192 194 195 196 197 197 198 198 199 199 200 200 199 198 197 196 195 194 194 194 195 196 198 200 202 204 206 208 210 212 213 215 216 217 218 220 221 223 225 226 227 228 229 230 231 231 231 232 233 235 237 239 241 243 245 247 250 251 253 254 255 256 256 257 257 258 258 258 259 260 262 263 265
263 235 217 204 198 198 196 193 192 191 191 192 194 195 195 195 196 197 197 198 198 199 200 200 200 199 198 197 195 195 194 194 195 195 197 199 201 203 205 206 208 210 211 212 214 215 216 217 219 220 221 223 224 225 226 227 228 229 230 230 232 234 235 237 239 240 242 243 245 248 250 252 253 254 255 256 256 257 257 258 258 259 261 262 264 266
279 244 224 209 201 198 198 196 195 194 195 196 197 197 197 196 196 197 197 198 198 199 199 200 200 199 198 197 195 194 194 194 195 196 199 200 202 204 206 207 209 210 211 212 213 214 215 216 218 219 221 222 223 225 225 227 227 228 229 230 232 234 237 238 240 241 241 242 244 246 248 250 252 254 255 256 256 257 258 258 259 260 262 263 265 267
294 258 233 217 206 200 199 198 198 198 199 200 200 200 199 198 197 197 197 197 198 198 199 199 200 199 198 197 196 195 195 195 196 198 200 202 203 205 207 208 210 211 211 212 213 214 215 216 218 219 221 222 223 225 226 227 228 229 230 231 233 235 238 240 241 241 242 242 243 245 247 249 251 253 254 256 257 258 258 259 260 262 263 265 267 269
300 273 243 225 213 205 201 201 201 202 203 204 204 203 202 201 199 198 197 197 197 198 198 199 199 199 198 197 196 195 195 196 197 199 201 203 204 206 208 209 210 211 212 213 213 214 215 216 218 219 221 222 224 225 226 227 228 229 230 232 233 235 238 240 241 242 242 243 243 244 246 248 250 252 254 256 257 258 259 260 262 263 264 266 268 269
298 282 255 234 222 212 206 204 203 204 206 208 208 207 205 204 202 200 199 198 198 198 198 199 199 199 198 197 196 196 196 196 198 201 203 204 206 207 208 210 211 212 213 213 214 215 216 217 218 220 221 222 224 225 226 227 228 229 230 231 233 234 236 238 240 242 242 243 243 244 245 247 249 251 253 255 257 259 260 261 263 264 265 267 268 270
291 285 267 244 230 221 213 209 207 207 208 210 211 211 210 208 206 204 201 199 198 198 199 199 199 199 198 197 196 196 196 197 199 202 204 205 207 208 209 211 211 212 213 214 215 216 217 218 219 220 221 223 224 225 226 227 228 229 230 231 232 233 235 237 239 241 242 242 243 244 245 247 248 251 253 255 257 259 260 262 263 264 265 267 268 269
281 279 272 254 238 228 220 215 212 210 210 211 213 214 214 213 210 208 205 202 200 200 200 200 200 199 199 198 197 196 197 198 200 203 205 207 208 209 211 212 213 213 213 214 215 216 217 218 219 220 221 222 223 224 225 226 227 228 229 230 231 233 234 236 238 240 241 243 243 244 245 247 248 250 253 255 257 259 260 261 263 264 265 266 267 269
272 271 268 260 245 234 226 221 217 214 213 213 214 216 217 217 215 212 209 206 204 202 201 201 201 200 199 198 197 197 197 199 201 204 206 208 209 211 212 213 214 214 214 215 216 216 217 218 219 220 221 222 223 224 225 225 227 228 229 230 232 233 235 236 238 240 241 243 244 245 246 247 249 250 252 254 256 258 260 261 262 263 264 265 267 268
267 265 263 259 250 240 231 226 222 218 217 216 215 216 218 219 219 217 213 210 208 206 204 203 202 201 200 199 198 198 198 200 202 205 207 209 211 212 213 214 215 215 216 216 216 217 218 219 220 221 222 222 223 224 225 226 227 228 229 231 232 234 235 237 238 240 241 243 244 245 246 247 249 251 252 254 256 258 259 260 261 262 263 265 266 268
264 261 257 255 251 245 237 230 226 223 220 219 218 218 218 220 221 220 218 215 212 210 208 206 204 203 201 200 199 199 200 201 204 206 209 211 212 214 214 215 216 216 217 217 218 218 219 220 221 222 223 224 225 226 227 228 229 230 231 232 233 235 236 237 239 240 242 243 244 246 247 248 249 251 252 254 256 258 259 260 261 262 263 265 266 268
263 259 255 252 249 246 240 234 229 226 224 222 221 220 220 221 221 222 221 218 216 214 212 209 207 205 203 202 201 200 201 203 205 208 210 212 214 215 215 216 216 217 217 218 218 219 220 221 222 223 224 225 226 227 228 230 231 232 233 234 235 236 237 239 240 241 243 244 245 247 248 249 250 252 253 255 256 258 259 260 262 263 264 266 267 269
262 258 255 251 248 245 242 237 232 229 226 224 223 222 222 222 222 222 222 221 219 217 215 213 210 208 205 204 202 202 203 204 206 209 211 213 215 216 216 217 217 217 218 218 219 220 221 222 223 224 225 226 227 228 229 231 232 233 234 235 237 238 239 240 241 243 244 246 247 248 249 250 251 252 254 255 257 258 260 261 262 264 265 267 268 270
260 258 255 251 247 244 241 239 235 231 229 227 225 224 223 223 223 223 223 223 221 219 218 216 213 211 208 206 204 204 204 206 208 210 212 214 215 216 217 217 218 218 218 219 219 220 221 222 223 224 225 226 228 229 230 232 233 234 235 236 237 239 240 241 242 243 245 246 247 248 249 250 252 253 254 256 258 259 261 262 263 265 266 267 268 270
259 257 255 252 248 244 241 239 236 233 231 228 227 226 225 224 224 224 224 223 222 221 220 218 216 214 211 209 207 206 206 207 209 211 213 215 216 217 217 218 218 218 218 219 220 220 221 222 224 225 226 227 228 230 231 233 234 235 236 237 238 239 240 241 242 243 245 246 247 248 249 250 252 253 254 256 258 259 261 262 263 265 266 267 268 269
260 257 254 252 249 246 243 240 237 235 232 230 228 227 226 226 225 225 224 223 223 222 221 220 218 216 214 212 210 209 209 209 211 212 214 216 217 218 218 218 218 218 219 219 220 220 221 223 224 225 227 228 229 230 232 233 234 236 237 238 239 240 240 241 242 243 244 246 247 248 249 250 251 253 254 256 258 259 260 262 263 264 265 266 267 269
262 258 255 252 250 247 244 241 238 236 234 231 230 228 227 226 226 226 225 224 224 223 222 221 220 218 216 214 212 211 211 212 213 214 215 217 218 219 219 219 219 219 219 219 220 221 222 223 224 226 227 228 230 231 232 233 235 236 237 238 239 240 241 242 243 244 244 245 247 248 249 250 251 253 254 256 257 258 260 261 262 263 264 266 267 268
264 260 257 253 250 248 246 243 240 238 235 233 231 229 228 227 227 226 226 225 225 224 223 222 221 220 219 217 215 214 213 214 214 215 217 218 219 220 220 220 220 220 220 220 220 221 222 223 225 226 227 229 230 231 233 234 235 236 238 239 240 241 242 242 243 244 245 246 247 248 249 250 251 252 254 255 256 258 259 260 261 263 264 265 267 268
265 262 259 255 252 249 246 244 242 239 237 235 233 231 229 228 227 227 226 226 226 225 224 223 223 222 220 219 218 216 215 216 216 217 218 220 221 221 222 222 222 221 221 221 221 221 222 223 225 226 228 229 231 232 233 234 235 237 238 239 240 241 242 243 244 245 245 246 247 248 249 250 251 252 253 255 256 257 258 260 261 263 264 265 267 268
265 263 260 257 254 250 247 245 243 241 239 237 235 233 231 230 228 227 227 226 226 226 225 225 224 223 222 221 220 219 218 218 218 218 220 221 222 223 223 224 224 224 223 223 223 223 223 224 225 226 228 230 231 232 234 235 236 237 238 239 240 241 242 243 244 245 246 247 248 249 250 250 251 252 253 255 256 257 259 260 261 263 264 266 267 269
264 263 261 258 255 252 249 246 244 242 240 238 236 234 233 231 230 229 228 227 227 226 226 226 225 224 224 223 222 221 221 220 220 220 221 222 223 224 224 225 225 225 226 225 225 225 225 225 225 226 228 230 231 233 234 236 237 238 238 240 241 242 243 244 245 246 247 248 249 250 251 251 252 253 254 255 257 258 259 261 262 264 265 266 268 269
263 262 261 259 256 254 251 248 245 243 241 239 237 236 234 233 231 230 229 228 227 227 226 226 226 225 225 224 224 223 223 222 222 222 222 223 224 225 225 226 226 227 227 227 228 228 227 227 227 227 228 230 231 233 235 236 237 238 239 240 241 242 243 244 246 247 248 249 250 251 252 252 253 254 255 256 257 259 260 261 263 264 265 267 268 270
262 261 260 258 257 255 252 249 247 244 242 240 238 237 235 234 233 231 230 229 228 228 227 227 227 226 226 226 225 225 224 224 223 223 224 224 225 226 226 227 227 228 228 229 229 230 230 230 230 230 230 230 232 233 235 236 238 239 240 241 242 243 244 245 246 247 248 250 251 252 253 254 254 255 256 257 258 259 260 262 263 264 266 267 268 270
261 260 259 258 256 255 253 251 248 246 243 241 239 238 236 235 234 233 232 231 230 229 228 228 227 227 227 227 227 226 226 225 225 225 225 225 226 227 227 228 228 228 229 229 230 231 232 232 233 233 232 232 233 234 235 236 238 239 241 242 243 244 245 246 247 248 249 250 251 252 253 254 255 256 257 258 259 260 261 262 263 265 266 267 269 270
261 260 259 257 256 255 253 252 250 248 245 243 241 239 238 236 235 234 233 232 231 230 229 229 228 228 228 228 228 227 227 227 226 226 226 226 227 228 228 229 229 229 230 230 231 231 232 233 234 235 235 235 235 236 236 237 238 239 241 242 243 244 246 246 247 248 250 251 252 253 254 255 256 257 257 258 259 260 261 262 264 265 266 268 269 271
261 260 258 257 256 255 254 253 251 249 247 245 243 241 240 238 237 235 234 233 232 231 231 230 229 229 229 229 229 229 228 228 228 227 227 227 228 228 229 230 230 231 231 231 231 232 232 233 234 235 236 237 237 238 238 239 240 240 241 242 244 245 246 247 248 249 250 252 253 254 255 256 257 258 259 259 260 261 263 264 265 266 267 269 270 272
261 260 259 258 257 256 255 253 252 250 249 247 245 243 242 240 239 237 236 235 233 233 232 231 231 230 230 229 229 229 230 229 229 229 229 228 229 229 230 230 231 231 232 232 232 233 233 234 234 235 236 237 238 239 240 240 241 242 243 243 244 245 246 248 249 250 251 252 254 255 256 257 258 259 260 261 262 263 264 265 266 268 269 270 271 272
261 260 259 258 257 256 255 254 253 251 250 249 247 245 244 242 241 239 238 237 235 234 233 233 232 231 231 230 230 230 230 230 230 230 230 230 230 230 230 231 231 232 233 233 233 234 234 234 235 235 236 237 238 239 240 241 242 243 244 244 245 246 247 248 249 250 252 253 254 255 257 258 259 260 261 262 263 264 265 266 267 268 270 271 272 273
262 261 260 259 258 257 256 255 254 253 252 250 249 247 246 244 243 241 240 239 237 236 235 234 233 233 232 232 231 231 231 231 231 231 232 231 231 231 232 232 232 233 233 234 234 235 235 235 236 236 237 237 238 239 240 241 242 243 244 245 246 247 248 248 249 250 252 253 254 255 257 258 259 260 262 263 264 265 265 267 267 268 270 271 272 273
261 261 260 259 258 257 257 256 255 254 253 252 250 249 247 246 245 243 242 241 239 238 237 236 235 234 234 233 233 232 232 232 232 232 233 233 233 233 233 233 233 234 234 235 235 236 236 237 237 237 238 238 239 240 240 241 242 243 244 245 246 247 248 248 249 250 251 252 254 255 256 258 259 260 261 262 263 264 265 266 267 268 269 270 271 272
261 260 260 259 258 258 257 256 256 255 254 253 252 251 249 248 247 245 244 243 241 240 239 238 237 236 235 234 234 234 233 233 233 233 233 234 234 234 235 235 235 235 235 236 236 237 237 238 238 239 239 239 240 241 241 242 243 244 244 245 246 247 248 248 249 250 251 252 253 255 256 257 258 260 261 262 263 264 265 266 267 268 269 270 271 272
261 261 260 259 258 258 257 257 256 256 255 255 254 253 251 250 249 247 246 245 244 242 241 240 239 238 237 236 235 235 235 234 234 234 234 234 235 235 235 236 236 236 237 237 237 238 238 238 239 240 240 241 241 242 242 243 244 244 245 246 247 247 248 249 250 250 251 252 253 254 255 257 258 259 260 262 263 264 265 266 267 267 268 269 270 271
262 261 260 260 259 258 258 257 257 256 256 255 255 254 253 252 251 250 248 247 246 245 243 242 241 240 238 237 236 236 235 235 235 235 235 235 235 235 236 236 237 237 238 238 238 239 239 239 240 241 241 241 242 242 243 243 244 245 246 247 247 248 249 249 250 251 252 252 253 254 255 256 258 259 260 261 262 263 264 265 266 267 268 268 269 270
263 262 261 261 260 259 258 258 257 257 256 256 255 255 254 254 253 252 250 249 248 247 246 244 243 242 241 239 238 237 237 236 236 236 236 236 236 236 236 237 237 238 238 239 239 239 240 240 241 241 242 242 243 243 244 244 245 246 246 247 248 249 249 250 251 251 252 253 254 254 255 256 258 259 260 261 262 263 264 265 265 266 267 268 269 270
264 263 262 262 261 260 260 259 258 258 257 256 256 256 255 255 254 253 252 251 250 249 248 247 246 244 243 242 241 239 238 237 237 236 236 237 237 237 237 237 238 238 238 239 239 240 240 240 241 242 242 243 243 244 244 245 246 246 247 248 248 249 250 251 251 252 253 253 254 255 256 256 257 258 259 260 261 262 263 264 265 266 266 267 268 269
264 264 263 263 262 262 261 260 259 259 258 257 257 256 256 255 255 254 254 253 252 251 250 249 248 247 246 244 243 242 241 239 239 238 237 237 237 237 238 238 238 238 238 239 239 239 240 240 241 241 242 243 243 244 245 245 246 247 248 248 249 250 250 251 252 252 253 254 254 255 256 256 257 258 259 260 261 262 262 263 264 265 266 267 267 268
264 264 264 263 263 262 262 261 261 260 259 258 258 257 257 256 256 256 255 255 254 253 252 251 250 249 248 247 246 244 243 242 241 240 239 238 238 237 238 238 238 239 239 239 239 239 239 239 240 241 242 242 243 244 245 245 246 247 248 248 249 250 251 252 252 253 254 254 255 255 256 257 257 258 259 259 260 261 262 263 263 264 265 266 267 267
264 264 264 263 263 263 262 262 261 260 260 259 259 258 258 257 257 257 257 256 255 255 254 253 252 251 250 249 248 246 245 244 243 242 241 239 239 238 238 238 238 238 239 239 239 239 239 239 239 240 240 241 242 243 244 245 246 246 247 248 249 250 251 252 253 253 254 255 255 256 256 257 257 258 258 259 260 260 261 262 263 264 264 265 266 267
Height
10467 10467 10467 10467 10467 10468 10468 10469 10471 10473 10475 10477 10479 10482 10485 10489 10493 10497 10502 10507 10511 10515 10520 10525 10528 10533 10537 10542 10546 10550 10555 10559 10564 10569 10574 10578 10583 10587 10590 10594 10597 10600 10604 10609 10612 10612 10610 10611 10612 10613 10615 10618 10620 10622 10623 10625 10625 10625 10623 10622 10622 10623 10625 10626 10627 10627 10628 10628 10627 10628 10629 10631 10632 10632 10632 10633 10636 10638 10639 10640 10640 10641 10641 10641 10640 10640
10468 10468 10468 10469 10470 10470 10471 10472 10473 10475 10477 10480 10482 10484 10487 10490 10493 10497 10502 10507 10511 10515 10520 10523 10527 10531 10535 10540 10544 10548 10553 10557 10562 10567 10571 10575 10580 10583 10588 10593 10595 10598 10602 10605 10608 10609 10607 10607 10608 10612 10613 10616 10618 10619 10620 10621 10621 10621 10620 10619 10620 10621 10623 10625 10625 10626 10625 10625 10624 10625 10626 10627 10628 10628 10629 10630 10632 10634 10635 10636 10637 10637 10637 10637 10637 10636
10470 10470 10470 10471 10472 10473 10473 10474 10476 10477 10479 10482 10484 10487 10489 10492 10495 10499 10503 10507 10511 10515 10518 10522 10526 10530 10533 10538 10543 10547 10552 10555 10560 10564 10568 10573 10577 10581 10585 10589 10592 10593 10597 10598 10600 10602 10601 10601 10604 10608 10611 10613 10614 10616 10617 10617 10617 10617 10617 10617 10618 10620 10621 10622 10623 10624 10623 10622 10622 10622 10623 10623 10624 10625 10626 10627 10628 10630 10631 10632 10633 10633 10633 10633 10633 10633
10472 10472 10472 10473 10473 10475 10475 10477 10478 10480 10482 10483 10486 10488 10491 10493 10497 10500 10503 10507 10510 10514 10518 10522 10525 10528 10532 10537 10541 10545 10550 10554 10558 10563 10567 10572 10577 10580 10581 10584 10587 10590 10592 10593 10594 10595 10597 10597 10599 10603 10607 10609 10610 10612 10613 10613 10614 10615 10615 10615 10617 10618 10619 10620 10622 10622 10620 10618 10617 10618 10619 10620 10621 10622 10623 10624 10625 10626 10627 10628 10628 10628 10629 10629 10629 10629
10474 10473 10474 10474 10475 10477 10478 10478 10480 10482 10483 10485 10487 10490 10492 10495 10498 10501 10504 10507 10510 10513 10517 10520 10523 10527 10530 10535 10539 10543 10548 10552 10557 10562 10567 10572 10576 10577 10577 10580 10583 10586 10588 10590 10591 10592 10593 10595 10597 10600 10603 10605 10607 10608 10610 10611 10612 10612 10613 10613 10615 10615 10617 10618 10619 10619 10617 10614 10613 10614 10616 10617 10618 10619 10620 10620 10622 10622 10623 10624 10624 10625 10625 10625 10625 10625
10476 10475 10475 10475 10477 10478 10479 10480 10482 10483 10485 10487 10488 10491 10493 10495 10498 10501 10504 10507 10510 10513 10517 10519 10522 10526 10529 10533 10537 10542 10546 10550 10555 10560 10565 10568 10570 10571 10574 10578 10581 10583 10586 10588 10590 10592 10593 10595 10596 10598 10600 10602 10603 10606 10608 10608 10609 10610 10611 10612 10613 10614 10615 10617 10617 10617 10613 10610 10609 10610 10612 10614 10615 10616 10617 10617 10618 10619 10620 10620 10620 10621 10621 10621 10621 10621
10478 10477 10477 10477 10478 10478 10480 10482 10483 10484 10486 10488 10490 10492 10494 10497 10498 10501 10503 10506 10510 10513 10516 10519 10522 10525 10529 10532 10537 10540 10545 10549 10553 10558 10562 10565 10566 10567 10571 10575 10578 10580 10582 10585 10588 10590 10592 10594 10595 10597 10598 10599 10601 10603 10605 10605 10606 10607 10608 10610 10611 10613 10614 10616 10616 10613 10609 10606 10605 10606 10608 10610 10612 10613 10613 10614 10615 10616 10617 10617 10617 10617 10617 10617 10617 10617
10479 10478 10478 10478 10479 10480 10481 10482 10483 10485 10487 10488 10491 10493 10495 10497 10499 10501 10503 10506 10509 10512 10515 10518 10522 10525 10528 10532 10535 10540 10543 10547 10552 10555 10558 10562 10564 10567 10570 10572 10575 10577 10578 10580 10582 10587 10590 10592 10593 10594 10595 10596 10598 10600 10602 10602 10603 10603 10605 10607 10608 10611 10613 10614 10613 10611 10607 10604 10603 10603 10603 10605 10607 10608 10610 10611 10612 10612 10613 10613 10613 10613 10613 10613 10613 10613
10481 10480 10480 10480 10480 10481 10482 10483 10484 10486 10488 10490 10492 10493 10495 10497 10500 10502 10504 10507 10510 10512 10515 10518 10521 10524 10527 10531 10535 10538 10542 10546 10550 10553 10557 10559 10562 10565 10568 10572 10573 10575 10578 10578 10580 10582 10586 10588 10590 10592 10593 10595 10597 10598 10599 10600 10601 10602 10602 10604 10606 10608 10610 10610 10610 10607 10604 10603 10603 10602 10601 10601 10602 10603 10605 10607 10608 10609 10610 10610 10610 10610 10610 10610 10610 10610
10482 10482 10481 10482 10482 10482 10483 10483 10485 10487 10488 10490 10492 10493 10495 10498 10500 10502 10505 10507 10510 10512 10515 10517 10520 10523 10526 10530 10533 10537 10541 10545 10548 10552 10555 10558 10561 10564 10567 10569 10572 10573 10576 10577 10578 10581 10583 10586 10588 10590 10592 10594 10596 10597 10598 10598 10598 10599 10600 10602 10603 10605 10606 10606 10605 10603 10601 10601 10601 10600 10600 10599 10599 10600 10600 10602 10603 10605 10605 10606 10606 10607 10607 10607 10607 10607
10483 10483 10482 10482 10483 10483 10484 10485 10486 10487 10488 10490 10492 10494 10497 10501 10502 10503 10505 10508 10510 10513 10515 10517 10520 10523 10525 10529 10532 10536 10539 10543 10547 10550 10553 10557 10560 10563 10565 10567 10569 10571 10573 10575 10577 10580 10582 10585 10587 10588 10590 10592 10594 10596 10597 10595 10596 10597 10597 10598 10600 10601 10602 10601 10600 10598 10598 10598 10598 10598 10598 10598 10598 10597 10598 10598 10600 10600 10601 10602 10602 10603 10603 10603 10603 10603
10485 10484 10483 10483 10483 10484 10485 10486 10487 10488 10488 10490 10492 10494 10497 10499 10501 10503 10506 10508 10511 10513 10515 10518 10520 10523 10526 10529 10532 10535 10539 10542 10545 10548 10552 10555 10558 10561 10563 10565 10567 10569 10571 10573 10575 10578 10580 10583 10584 10586 10587 10589 10590 10591 10592 10592 10592 10593 10593 10594 10595 10596 10596 10595 10595 10594 10594 10594 10595 10595 10596 10596 10596 10596 10596 10596 10597 10597 10597 10598 10598 10599 10600 10600 10600 10600
10485 10485 10484 10484 10484 10485 10486 10487 10488 10488 10489 10490 10491 10493 10495 10497 10500 10502 10505 10508 10510 10513 10516 10518 10521 10524 10527 10530 10533 10535 10538 10541 10544 10548 10551 10553 10556 10559 10561 10563 10565 10568 10570 10572 10574 10576 10578 10580 10582 10583 10584 10585 10586 10587 10588 10587 10588 10589 10590 10590 10591 10592 10591 10590 10590 10590 10590 10590 10591 10592 10592 10593 10593 10593 10594 10594 10593 10593 10594 10594 10595 10595 10595 10596 10597 10597
10487 10486 10485 10485 10485 10485 10487 10487 10488 10489 10490 10490 10492 10492 10494 10496 10498 10502 10504 10507 10510 10512 10515 10518 10521 10523 10527 10530 10533 10535 10538 10540 10543 10547 10550 10553 10555 10557 10558 10560 10563 10566 10567 10568 10570 10572 10574 10577 10578 10580 10580 10582 10582 10582 10583 10583 10583 10583 10585 10586 10587 10587 10587 10586 10585 10585 10585 10586 10587 10588 10589 10590 10590 10590 10590 10590 10590 10590 10590 10590 10591 10591 10592 10592 10593 10594
10487 10487 10486 10486 10486 10486 10487 10488 10488 10489 10490 10491 10492 10493 10493 10495 10497 10500 10503 10505 10508 10511 10514 10517 10520 10523 10526 10530 10532 10534 10537 10539 10542 10545 10548 10552 10554 10556 10557 10558 10559 10561 10562 10562 10563 10565 10568 10571 10573 10574 10575 10576 10577 10577 10577 10578 10578 10579 10581 10583 10583 10583 10583 10582 10581 10581 10581 10582 10584 10586 10587 10587 10587 10587 10587 10587 10587 10587 10587 10587 10587 10588 10588 10590 10590 10591
10487 10487 10487 10487 10487 10487 10487 10488 10488 10490 10490 10491 10492 10493 10493 10495 10497 10498 10501 10503 10506 10509 10512 10515 10518 10522 10525 10527 10530 10532 10535 10538 10540 10543 10545 10548 10551 10553 10555 10555 10555 10555 10556 10557 10559 10562 10564 10567 10568 10569 10570 10571 10571 10572 10572 10573 10574 10576 10578 10580 10581 10581 10580 10579 10578 10577 10578 10579 10582 10583 10583 10583 10583 10583 10582 10582 10583 10583 10583 10584 10585 10585 10586 10587 10587 10588
10487 10487 10487 10487 10487 10487 10488 10488 10488 10489 10490 10490 10491 10492 10493 10494 10495 10497 10500 10502 10505 10507 10510 10513 10516 10519 10522 10525 10527 10530 10533 10536 10538 10540 10542 10544 10546 10548 10550 10550 10550 10551 10552 10554 10557 10558 10561 10563 10565 10565 10566 10567 10567 10568 10568 10570 10571 10572 10575 10577 10578 10578 10577 10575 10573 10573 10573 10576 10578 10580 10580 10580 10580 10579 10578 10578 10579 10579 10580 10580 10582 10582 10583 10583 10583 10584
10487 10487 10487 10487 10487 10487 10488 10488 10489 10489 10490 10490 10491 10492 10493 10494 10495 10497 10498 10500 10503 10505 10508 10510 10513 10516 10518 10522 10524 10527 10531 10533 10536 10538 10540 10541 10542 10543 10545 10545 10546 10547 10549 10552 10553 10556 10558 10560 10562 10562 10563 10563 10564 10565 10566 10567 10568 10570 10572 10574 10575 10575 10573 10570 10568 10568 10570 10572 10575 10576 10577 10577 10576 10576 10575 10575 10575 10576 10577 10577 10578 10579 10579 10580 10580 10580
10487 10487 10487 10487 10488 10488 10488 10488 10488 10489 10490 10490 10490 10491 10492 10493 10495 10496 10497 10499 10501 10503 10505 10508 10510 10513 10515 10518 10521 10524 10528 10530 10532 10534 10537 10538 10540 10540 10542 10542 10543 10545 10546 10548 10550 10553 10555 10557 10558 10559 10560 10560 10561 10562 10562 10563 10565 10567 10568 10569 10570 10569 10567 10565 10563 10563 10566 10568 10571 10572 10573 10573 10573 10573 10573 10572 10572 10573 10573 10574 10575 10575 10576 10577 10577 10577
10486 10486 10487 10487 10487 10488 10488 10488 10488 10489 10490 10490 10490 10491 10492 10492 10493 10495 10496 10497 10499 10501 10503 10505 10507 10510 10512 10515 10519 10522 10525 10528 10529 10530 10532 10533 10535 10537 10538 10538 10539 10540 10542 10544 10547 10549 10552 10554 10555 10556 10556 10556 10556 10557 10557 10558 10560 10561 10562 10563 10563 10563 10562 10560 10559 10560 10562 10565 10567 10568 10569 10570 10570 10570 10570 10569 10569 10570 10570 10571 10572 10572 10573 10573 10573 10573
10485 10485 10485 10486 10487 10487 10488 10488 10488 10489 10489 10490 10490 10490 10491 10492 10493 10494 10495 10497 10498 10499 10500 10502 10504 10507 10510 10513 10517 10520 10522 10525 10526 10527 10528 10529 10530 10531 10532 10533 10534 10535 10538 10540 10543 10547 10550 10551 10552 10551 10550 10550 10550 10551 10552 10553 10553 10555 10556 10557 10557 10557 10557 10556 10557 10557 10559 10561 10563 10564 10565 10566 10567 10567 10566 10566 10566 10566 10567 10567 10568 10569 10569 10570 10570 10570
10483 10484 10485 10485 10486 10487 10487 10487 10488 10488 10489 10490 10490 10490 10490 10491 10492 10493 10494 10495 10497 10498 10498 10500 10502 10504 10507 10510 10513 10517 10519 10521 10522 10523 10525 10526 10527 10527 10528 10528 10530 10531 10533 10537 10540 10543 10545 10545 10545 10544 10543 10543 10544 10545 10547 10548 10549 10550 10552 10552 10552 10553 10553 10553 10554 10555 10557 10558 10560 10561 10562 10563 10563 10563 10562 10562 10562 10562 10563 10564 10565 10565 10566 10567 10567 10568
10482 10483 10483 10483 10484 10485 10486 10487 10487 10488 10488 10488 10489 10490 10490 10490 10491 10492 10493 10495 10496 10497 10497 10498 10500 10503 10505 10508 10511 10513 10516 10517 10518 10520 10521 10522 10523 10523 10524 10525 10527 10528 10530 10533 10535 10537 10538 10538 10537 10537 10537 10538 10539 10540 10542 10543 10545 10546 10547 10548 10548 10549 10550 10551 10552 10553 10554 10555 10556 10557 10558 10559 10559 10559 10558 10558 10558 10559 10560 10561 10562 10563 10563 10564 10565 10565
10480 10481 10482 10482 10482 10483 10484 10485 10485 10486 10487 10487 10488 10488 10489 10490 10490 10491 10492 10494 10495 10497 10497 10498 10500 10502 10504 10506 10508 10510 10512 10513 10515 10517 10518 10518 10518 10519 10520 10522 10524 10526 10528 10530 10532 10532 10532 10532 10532 10533 10534 10535 10537 10539 10540 10542 10543 10543 10544 10545 10546 10547 10548 10548 10549 10550 10551 10552 10553 10554 10555 10555 10555 10555 10555 10555 10555 10556 10557 10558 10559 10560 10561 10562 10562 10563
10478 10479 10480 10480 10480 10481 10482 10483 10483 10485 10485 10486 10487 10487 10488 10488 10489 10490 10491 10493 10494 10496 10497 10498 10499 10500 10502 10503 10505 10507 10508 10510 10512 10512 10513 10513 10515 10516 10517 10519 10521 10523 10525 10527 10528 10529 10529 10529 10530 10531 10533 10535 10537 10538 10540 10540 10541 10541 10542 10542 10543 10544 10545 10546 10547 10548 10549 10550 10550 10552 10552 10552 10552 10552 10552 10552 10552 10553 10554 10555 10556 10557 10558 10559 10560 10560
10476 10477 10477 10478 10478 10479 10480 10480 10482 10482 10483 10483 10485 10485 10486 10487 10487 10488 10489 10490 10492 10493 10495 10497 10498 10498 10500 10501 10502 10503 10504 10506 10507 10508 10508 10509 10510 10512 10513 10516 10518 10520 10522 10523 10525 10527 10527 10527 10528 10530 10532 10533 10535 10536 10537 10537 10537 10538 10539 10540 10541 10542 10543 10544 10545 10546 10547 10547 10548 10548 10549 10549 10549 10548 10548 10549 10549 10550 10551 10552 10553 10555 10556 10557 10557 10558
10473 10474 10475 10475 10476 10477 10477 10478 10478 10480 10480 10481 10482 10483 10483 10484 10485 10485 10487 10487 10488 10490 10492 10493 10495 10497 10498 10499 10500 10500 10501 10502 10503 10503 10504 10505 10506 10508 10510 10512 10514 10517 10518 10520 10522 10523 10524 10525 10525 10527 10528 10530 10530 10532 10533 10533 10534 10535 10536 10537 10538 10539 10540 10541 10542 10543 10543 10544 10545 10545 10545 10545 10545 10545 10546 10546 10547 10547 10548 10550 10551 10552 10553 10554 10554 10555
10470 10471 10472 10472 10473 10473 10474 10475 10475 10477 10477 10478 10479 10480 10481 10482 10482 10483 10483 10484 10486 10487 10488 10490 10492 10495 10496 10497 10497 10497 10498 10499 10499 10500 10500 10501 10502 10503 10505 10508 10510 10513 10514 10515 10517 10518 10520 10520 10521 10522 10524 10525 10527 10528 10528 10530 10530 10531 10532 10533 10534 10535 10536 10537 10538 10539 10540 10540 10540 10541 10542 10542 10542 10542 10543 10543 10543 10544 10545 10547 10548 10549 10550 10550 10551 10552
10467 10467 10468 10469 10470 10470 10471 10472 10472 10473 10473 10475 10475 10477 10478 10478 10479 10480 10480 10482 10483 10484 10485 10487 10488 10491 10492 10493 10495 10495 10496 10496 10495 10496 10497 10498 10498 10499 10501 10503 10507 10508 10510 10512 10513 10514 10515 10516 10517 10518 10520 10521 10522 10524 10525 10525 10527 10527 10528 10528 10530 10531 10532 10533 10533 10534 10535 10535 10536 10537 10537 10538 10538 10539 10539 10540 10540 10541 10542 10543 10545 10545 10547 10547 10547 10548
10462 10463 10464 10465 10466 10467 10467 10468 10469 10470 10470 10471 10472 10473 10473 10475 10475 10477 10477 10478 10480 10480 10482 10483 10485 10487 10488 10490 10492 10493 10493 10492 10493 10493 10494 10495 10494 10495 10497 10500 10502 10504 10506 10508 10510 10510 10511 10512 10513 10514 10515 10517 10518 10519 10520 10522 10522 10523 10523 10524 10525 10526 10527 10528 10528 10529 10530 10531 10532 10532 10533 10534 10535 10535 10535 10536 10537 10537 10538 10540 10541 10542 10543 10543 10544 10545
10457 10458 10460 10461 10462 10463 10463 10464 10465 10466 10467 10467 10468 10468 10470 10470 10472 10473 10474 10475 10476 10477 10477 10479 10480 10482 10484 10486 10488 10488 10488 10488 10490 10491 10492 10492 10491 10492 10494 10496 10497 10500 10502 10504 10505 10506 10507 10507 10508 10510 10511 10512 10513 10515 10516 10517 10518 10518 10519 10520 10520 10522 10522 10523 10524 10525 10525 10527 10527 10528 10529 10530 10530 10531 10532 10532 10533 10533 10535 10537 10538 10538 10540 10540 10541 10542
10452 10453 10455 10456 10457 10458 10459 10460 10461 10462 10463 10463 10464 10465 10465 10467 10467 10468 10470 10471 10472 10473 10473 10475 10476 10478 10479 10481 10482 10483 10483 10485 10487 10488 10488 10488 10488 10489 10491 10493 10494 10495 10498 10500 10500 10502 10502 10503 10505 10506 10507 10508 10509 10510 10511 10512 10513 10514 10515 10516 10517 10517 10518 10519 10520 10521 10522 10522 10523 10523 10525 10525 10526 10527 10527 10528 10529 10530 10532 10533 10535 10536 10537 10537 10538 10538
10447 10448 10450 10451 10452 10453 10455 10455 10457 10457 10458 10459 10460 10460 10462 10462 10463 10464 10465 10467 10468 10468 10470 10471 10472 10473 10475 10476 10477 10478 10480 10482 10483 10484 10485 10485 10485 10487 10488 10490 10491 10493 10494 10496 10497 10497 10498 10499 10500 10502 10503 10504 10505 10506 10507 10508 10508 10510 10511 10512 10513 10513 10515 10515 10517 10517 10517 10518 10519 10520 10520 10522 10522 10523 10523 10525 10526 10527 10528 10530 10532 10533 10533 10535 10535 10536
10442 10443 10444 10445 10447 10448 10449 10450 10452 10452 10453 10455 10455 10457 10457 10458 10458 10460 10461 10462 10463 10464 10465 10467 10468 10468 10470 10471 10472 10473 10475 10477 10478 10480 10481 10481 10482 10482 10484 10486 10488 10490 10491 10492 10493 10494 10495 10495 10497 10498 10500 10500 10501 10502 10503 10503 10505 10506 10507 10508 10509 10510 10511 10512 10513 10513 10514 10515 10515 10516 10517 10518 10518 10520 10520 10522 10523 10525 10526 10528 10529 10530 10531 10532 10532 10533
10437 10438 10438 10440 10441 10442 10443 10445 10446 10447 10448 10450 10450 10452 10453 10453 10454 10455 10456 10457 10458 10460 10461 10462 10463 10464 10465 10467 10468 10468 10470 10472 10473 10475 10477 10477 10477 10478 10480 10482 10483 10485 10487 10489 10490 10491 10492 10492 10493 10495 10495 10497 10497 10498 10499 10500 10501 10502 10503 10505 10506 10507 10508 10508 10510 10510 10510 10511 10512 10512 10513 10514 10515 10517 10517 10519 10520 10522 10523 10525 10526 10527 10528 10528 10530 10530
10431 10432 10433 10434 10435 10437 10438 10439 10440 10442 10443 10444 10445 10447 10448 10448 10450 10450 10452 10452 10453 10455 10456 10457 10458 10460 10461 10462 10463 10463 10465 10467 10468 10471 10472 10472 10473 10474 10476 10477 10478 10481 10483 10485 10486 10487 10488 10489 10490 10491 10492 10493 10493 10494 10495 10496 10497 10498 10500 10501 10502 10503 10504 10505 10506 10507 10507 10508 10508 10508 10509 10510 10512 10513 10515 10516 10518 10519 10521 10522 10523 10525 10525 10526 10527 10528
10425 10427 10427 10428 10430 10431 10432 10433 10435 10436 10437 10438 10440 10441 10442 10443 10445 10446 10447 10448 10448 10450 10451 10452 10453 10455 10456 10457 10458 10459 10460 10462 10464 10466 10467 10468 10469 10470 10471 10472 10474 10476 10478 10480 10481 10483 10485 10485 10487 10488 10489 10490 10490 10490 10491 10493 10494 10495 10496 10497 10498 10500 10500 10502 10502 10503 10504 10505 10505 10505 10506 10507 10508 10510 10512 10513 10515 10516 10518 10520 10521 10522 10523 10523 10524 10525
10420 10421 10422 10423 10424 10425 10426 10427 10428 10430 10432 10433 10434 10435 10437 10438 10439 10440 10442 10443 10443 10445 10446 10447 10448 10449 10451 10452 10453 10455 10456 10458 10459 10460 10462 10463 10464 10465 10467 10468 10470 10472 10473 10475 10476 10478 10480 10482 10483 10483 10485 10485 10486 10487 10488 10490 10491 10492 10492 10493 10495 10496 10497 10498 10499 10500 10501 10501 10502 10502 10503 10504 10505 10507 10508 10510 10512 10513 10515 10517 10518 10519 10520 10521 10522 10522
10415 10416 10417 10418 10418 10420 10420 10422 10423 10424 10425 10427 10428 10430 10431 10432 10433 10435 10436 10437 10438 10440 10440 10442 10443 10444 10445 10447 10448 10449 10451 10452 10453 10455 10457 10458 10459 10460 10462 10463 10465 10467 10468 10470 10472 10473 10475 10477 10478 10479 10480 10482 10483 10484 10485 10487 10488 10488 10489 10490 10492 10493 10493 10495 10496 10497 10497 10498 10498 10499 10500 10501 10502 10503 10505 10507 10508 10510 10512 10513 10515 10517 10518 10518 10519 10520
10410 10411 10412 10413 10413 10415 10415 10416 10417 10418 10420 10421 10423 10424 10425 10427 10428 10429 10430 10432 10433 10434 10435 10437 10438 10439 10440 10442 10443 10444 10445 10447 10448 10450 10452 10453 10454 10455 10457 10458 10459 10461 10463 10465 10467 10468 10470 10472 10473 10474 10476 10478 10479 10480 10482 10483 10485 10485 10486 10488 10488 10489 10490 10492 10493 10494 10495 10495 10496 10497 10497 10498 10499 10500 10502 10503 10505 10507 10509 10511 10512 10513 10515 10515 10516 10517
10405 10406 10407 10408 10408 10409 10410 10411 10412 10413 10414 10415 10417 10418 10419 10420 10422 10423 10425 10426 10427 10428 10430 10431 10432 10433 10435 10436 10437 10438 10440 10442 10443 10445 10446 10447 10449 10450 10452 10453 10454 10456 10458 10460 10462 10463 10465 10467 10468 10470 10472 10473 10475 10477 10478 10480 10481 10482 10483 10484 10485 10485 10486 10488 10490 10492 10492 10493 10493 10494 10495 10495 10497 10498 10499 10500 10502 10504 10506 10508 10509 10510 10511 10512 10513 10513
10401 10402 10402 10403 10404 10405 10405 10406 10407 10408 10409 10410 10411 10412 10413 10415 10416 10417 10418 10420 10422 10423 10424 10425 10427 10428 10429 10430 10432 10433 10435 10436 10437 10439 10440 10442 10443 10445 10447 10448 10450 10452 10453 10455 10457 10458 10460 10462 10463 10465 10467 10468 10470 10472 10474 10475 10477 10478 10479 10480 10480 10482 10483 10486 10487 10488 10490 10490 10491 10492 10493 10493 10493 10495 10496 10497 10499 10501 10503 10505 10506 10507 10508 10508 10510 10510
10396 10397 10398 10398 10399 10400 10400 10401 10402 10403 10403 10404 10405 10406 10407 10408 10410 10411 10412 10413 10415 10417 10418 10420 10421 10422 10423 10425 10426 10428 10429 10430 10432 10433 10435 10437 10438 10440 10442 10443 10445 10447 10448 10450 10452 10453 10455 10457 10459 10460 10462 10464 10467 10468 10469 10470 10472 10473 10475 10475 10476 10478 10480 10481 10483 10485 10487 10488 10488 10489 10490 10490 10491 10492 10493 10495 10496 10498 10500 10502 10503 10504 10505 10505 10507 10507
10391 10392 10393 10393 10394 10395 10395 10396 10397 10397 10398 10398 10400 10400 10402 10403 10404 10405 10406 10407 10408 10410 10412 10413 10415 10417 10418 10419 10420 10422 10423 10425 10427 10428 10430 10431 10433 10435 10436 10438 10440 10442 10443 10445 10447 10448 10450 10452 10454 10456 10457 10460 10462 10463 10465 10466 10467 10468 10470 10470 10472 10473 10475 10476 10478 10481 10484 10485 10485 10486 10487 10488 10488 10489 10490 10492 10493 10495 10497 10498 10499 10500 10502 10502 10503 10504
10386 10387 10388 10388 10389 10390 10390 10391 10392 10392 10393 10393 10394 10395 10396 10397 10398 10399 10400 10402 10403 10404 10405 10407 10409 10410 10412 10413 10415 10417 10418 10420 10422 10423 10425 10426 10428 10429 10431 10433 10434 10437 10438 10440 10442 10443 10445 10447 10449 10451 10453 10455 10457 10458 10460 10461 10463 10464 10465 10466 10467 10469 10470 10472 10474 10477 10479 10480 10481 10483 10483 10485 10486 10487 10488 10489 10490 10491 10493 10495 10496 10497 10498 10499 10500 10501
10380 10381 10382 10383 10383 10384 10385 10385 10387 10387 10388 10388 10388 10389 10390 10392 10392 10393 10394 10395 10397 10398 10399 10401 10403 10404 10405 10407 10409 10411 10413 10414 10416 10417 10419 10421 10422 10424 10426 10427 10429 10431 10433 10435 10437 10439 10441 10442 10444 10446 10448 10451 10452 10453 10455 10457 10458 10459 10460 10462 10463 10464 10465 10467 10470 10472 10474 10475 10477 10479 10480 10482 10483 10485 10485 10485 10487 10488 10490 10491 10492 10493 10494 10495 10497 10497
10374 10375 10376 10377 10378 10378 10379 10380 10381 10382 10382 10382 10383 10384 10385 10385 10387 10387 10388 10390 10391 10392 10393 10395 10397 10398 10399 10401 10403 10405 10407 10408 10410 10412 10413 10415 10417 10419 10421 10422 10424 10426 10428 10430 10432 10434 10436 10438 10440 10442 10444 10445 10447 10448 10450 10452 10453 10455 10455 10457 10458 10460 10461 10463 10465 10467 10469 10471 10473 10475 10477 10478 10480 10481 10482 10482 10483 10485 10486 10487 10488 10490 10491 10492 10493 10493
10368 10369 10370 10371 10372 10373 10373 10374 10375 10376 10376 10377 10377 10378 10379 10380 10380 10382 10382 10383 10385 10386 10387 10388 10390 10391 10393 10395 10397 10400 10402 10403 10405 10407 10408 10410 10412 10413 10415 10417 10419 10420 10422 10425 10427 10429 10431 10433 10435 10437 10438 10440 10442 10443 10445 10447 10448 10450 10451 10452 10454 10455 10457 10458 10460 10462 10465 10467 10469 10471 10473 10475 10477 10477 10478 10479 10480 10481 10482 10483 10485 10486 10487 10488 10489 10489
10362 10363 10364 10365 10366 10367 10367 10368 10369 10370 10370 10371 10372 10372 10373 10373 10375 10375 10376 10377 10379 10380 10382 10382 10384 10385 10387 10389 10391 10393 10395 10397 10399 10401 10403 10405 10407 10408 10410 10412 10413 10415 10417 10419 10421 10423 10426 10428 10430 10432 10433 10435 10437 10438 10440 10442 10443 10445 10446 10448 10449 10450 10452 10453 10455 10458 10460 10463 10465 10467 10469 10471 10472 10473 10475 10476 10477 10477 10478 10479 10481 10482 10483 10484 10485 10485
10357 10357 10358 10359 10360 10360 10361 10362 10363 10363 10364 10365 10365 10366 10367 10368 10368 10369 10370 10372 10373 10374 10375 10377 10378 10379 10381 10383 10385 10387 10390 10392 10393 10395 10398 10400 10402 10403 10405 10407 10408 10410 10412 10413 10415 10418 10420 10422 10425 10427 10428 10430 10432 10433 10435 10437 10438 10440 10442 10443 10444 10446 10447 10449 10451 10453 10456 10458 10460 10463 10465 10467 10468 10470 10471 10472 10472 10473 10474 10475 10477 10478 10479 10480 10481 10482
10350 10352 10352 10353 10353 10354 10355 10355 10356 10357 10357 10358 10359 10360 10360 10362 10362 10363 10365 10365 10367 10368 10369 10370 10372 10373 10375 10377 10379 10381 10383 10385 10388 10390 10392 10394 10397 10398 10400 10402 10403 10405 10406 10408 10410 10412 10415 10417 10418 10421 10423 10425 10427 10428 10430 10432 10433 10435 10437 10438 10440 10442 10443 10445 10447 10449 10452 10453 10456 10458 10460 10462 10464 10465 10467 10467 10468 10469 10470 10471 10472 10473 10475 10476 10477 10477